, CA

(GMT )
Point Mugu

Weather History for KNTD - August, 2012

Change the Weather History Date:

Saturday, August 25, 2012

  Actual Average Record
Temperature  
Mean Temperature 66 °F -  
Max Temperature 72 °F 70 °F 81 °F (2015)
Min Temperature 62 °F 56 °F 53 °F (2002)
Cooling Degree Days 2    
Growing Degree Days 16 (Base 50)    
Moisture  
Dew Point 60 °F    
Average Humidity 82    
Maximum Humidity 94    
Minimum Humidity 68    
Precipitation  
Precipitation 0.00 in - - ()
Sea Level Pressure  
Sea Level Pressure 29.88 in    
Wind  
Wind Speed 8 mph (South)    
Max Wind Speed 22 mph    
Max Gust Speed -    
Visibility 7 miles    
Events      
Averages and records for this station are not official NWS values.
T = Trace of Precipitation, MM = Missing Value Source: NWS Daily Summary

Daily Weather History Graph

Daily Weather History Graph

Search for Another Location

Airport or City:

Trip Planner

Search our weather history database for the weather conditions in past years. The results will help you decide how hot, cold, wet, or windy it might be!

Date:

Astronomy

Aug. 25, 2012 Rise Set
Actual Time 6:25 AM PDT 7:30 PM PDT
Civil Twilight 5:59 AM PDT 7:56 PM PDT
Nautical Twilight 5:28 AM PDT 8:27 PM PDT
Astronomical Twilight 4:57 AM PDT 8:58 PM PDT
Moon 3:00 PM PDT (8/25) 12:21 AM PDT (8/25)
Length of Visible Light 13h 56m
Length of Day
13h 05m
Waxing Gibbous, 64% of the Moon is Illuminated
Aug 25
Waxing Gibbous
Aug 31
Full
Sep 8
Last Quarter
Sep 15
New
Sep 22
First Quarter

Hourly Weather History & Observations

Time (PDT) Temp. Dew Point Humidity Pressure Visibility Wind Dir Wind Speed Gust Speed Precip Events Conditions
12:54 AM 63.0 °F 60.1 °F 90% 29.89 in 10.0 mi Variable 5.8 mph - N/A   Overcast
1:54 AM 63.0 °F 60.1 °F 90% 29.88 in 10.0 mi Variable 4.6 mph - N/A   Overcast
2:54 AM 63.0 °F 60.1 °F 90% 29.88 in 10.0 mi SSE 11.5 mph - N/A   Overcast
3:54 AM 63.0 °F 60.1 °F 90% 29.88 in 10.0 mi SSE 5.8 mph - N/A   Overcast
4:54 AM 62.1 °F 60.1 °F 93% 29.88 in 10.0 mi SSE 10.4 mph - N/A   Overcast
5:54 AM 62.1 °F 60.1 °F 93% 29.88 in 10.0 mi SSE 10.4 mph - N/A   Overcast
6:08 AM 62.6 °F 60.8 °F 94% 29.87 in 4.0 mi SSE 10.4 mph - N/A   Overcast
6:54 AM 63.0 °F 60.1 °F 90% 29.89 in 4.0 mi SSE 9.2 mph - N/A   Overcast
7:46 AM 64.4 °F 60.8 °F 88% 29.89 in 4.0 mi SSE 12.7 mph - N/A   Overcast
7:54 AM 64.0 °F 60.1 °F 87% 29.90 in 4.0 mi SE 8.1 mph - N/A   Overcast
8:54 AM 64.9 °F 60.1 °F 84% 29.91 in 4.0 mi SE 3.5 mph - N/A   Haze
9:54 AM 66.0 °F 59.0 °F 78% 29.92 in 5.0 mi SSE 8.1 mph - N/A   Haze
10:54 AM 66.9 °F 59.0 °F 76% 29.92 in 5.0 mi South 10.4 mph - N/A   Haze
11:33 AM 68.0 °F 59.0 °F 73% 29.91 in 5.0 mi Variable 6.9 mph - N/A   Haze
11:54 AM 71.1 °F 61.0 °F 70% 29.91 in 5.0 mi South 12.7 mph - N/A   Haze
12:54 PM 71.1 °F 60.1 °F 68% 29.90 in 6.0 mi SSW 6.9 mph - N/A   Haze
1:54 PM 70.0 °F 60.1 °F 71% 29.88 in 5.0 mi SSW 8.1 mph - N/A   Haze
1:59 PM 71.6 °F 60.8 °F 69% 29.88 in 7.0 mi Variable 5.8 mph - N/A   Scattered Clouds
2:54 PM 70.0 °F 60.1 °F 71% 29.87 in 7.0 mi Variable 6.9 mph - N/A   Scattered Clouds
3:54 PM 70.0 °F 60.1 °F 71% 29.86 in 7.0 mi Variable 5.8 mph - N/A   Scattered Clouds
4:54 PM 68.0 °F 59.0 °F 73% 29.86 in 7.0 mi Variable 5.8 mph - N/A   Partly Cloudy
5:54 PM 66.9 °F 59.0 °F 76% 29.86 in 7.0 mi Variable 5.8 mph - N/A   Scattered Clouds
6:16 PM 66.2 °F 59.0 °F 78% 29.85 in 7.0 mi Variable 6.9 mph - N/A   Mostly Cloudy
6:54 PM 64.9 °F 59.0 °F 81% 29.86 in 7.0 mi West 8.1 mph - N/A   Overcast
7:54 PM 63.0 °F 59.0 °F 87% 29.86 in 7.0 mi Variable 6.9 mph - N/A   Overcast
8:54 PM 63.0 °F 57.9 °F 84% 29.87 in 7.0 mi NW 21.9 mph - N/A   Overcast
9:54 PM 63.0 °F 57.9 °F 84% 29.88 in 10.0 mi NW 8.1 mph - N/A   Overcast
10:54 PM 63.0 °F 57.9 °F 84% 29.88 in 7.0 mi Variable 3.5 mph - N/A   Overcast
11:54 PM 63.0 °F 57.9 °F 84% 29.88 in 10.0 mi Calm Calm - N/A   Overcast